Weather History for Rexburg, ID

Change the Weather History Date:

Saturday, November 12, 2011

  Actual Average Record
Temperature  
Mean Temperature 35 °F 33 °F  
Max Temperature 42 °F 43 °F 65 °F (1999)
Min Temperature 27 °F 23 °F 9 °F (2000)
Degree Days  
Heating Degree Days 30 32  
Month to date heating degree days 417 354  
Since 1 July heating degree days 1138 1341  
Cooling Degree Days 0 0  
Month to date cooling degree days 0 0  
Year to date cooling degree days 222 208  
Moisture  
Dew Point 27 °F    
Average Humidity 65    
Maximum Humidity 100    
Minimum Humidity 29    
Precipitation  
Precipitation 0.32 in 0.04 in 0.44 in (1980)
Month to date precipitation 0.41 0.48  
Year to date precipitation 12.62 11.47  
Sea Level Pressure  
Sea Level Pressure 29.62 in    
Wind  
Wind Speed 16 mph (SSW)    
Max Wind Speed 30 mph    
Max Gust Speed 39 mph    
Visibility 8 miles    
Events Fog , Snow    
T = Trace of Precipitation, MM = Missing Value Source: NWS Daily Summary

Daily Weather History Graph

Daily Weather History Graph

Search for Another Location

Airport:

Trip Planner

Search our weather history database for the weather conditions in past years. The results will help you decide how hot, cold, wet, or windy it might be!

Date:

Astronomy

Nov. 12, 2011 Rise Set
Actual Time 7:17 AM MST 5:04 PM MST
Civil Twilight 6:46 AM MST 5:35 PM MST
Nautical Twilight 6:12 AM MST 6:10 PM MST
Astronomical Twilight 5:38 AM MST 6:43 PM MST
Moon 6:19 PM MST (11/12) 9:06 AM MST (11/12)
Length of Visible Light 10h 48m
Length of Day
9h 47m
Waning Gibbous, 97% of the Moon is Illuminated
Nov 12
Waning Gibbous
Nov 18
Last Quarter
Nov 24
New
Dec 2
First Quarter
Dec 10
Full

Hourly Weather History & Observations

Time (MST) Temp. Windchill Dew Point Humidity Pressure Visibility Wind Dir Wind Speed Gust Speed Precip Events Conditions
12:00 AM - - - N/A% - - North - - N/A   Unknown
12:53 AM 37.0 °F 31.0 °F 17.1 °F 44% 29.63 in 10.0 mi West 8.1 mph - N/A   Overcast
1:53 AM 37.9 °F 28.9 °F 18.0 °F 45% 29.62 in 9.0 mi SW 16.1 mph - 0.00 in Snow Light Snow
2:53 AM 39.0 °F 30.3 °F 26.1 °F 60% 29.56 in 10.0 mi South 16.1 mph 23.0 mph 0.00 in   Overcast
3:53 AM 37.9 °F 27.1 °F 28.9 °F 70% 29.57 in 10.0 mi SW 23.0 mph 39.1 mph 0.00 in Snow Light Snow
4:31 AM 33.8 °F 23.2 °F 32.0 °F 93% 29.56 in 4.0 mi SSW 17.3 mph 27.6 mph 0.01 in Snow Light Snow
4:41 AM 33.8 °F 23.5 °F 32.0 °F 93% 29.56 in 3.0 mi SSW 16.1 mph 26.5 mph 0.01 in Snow Light Snow
4:53 AM 33.1 °F 22.2 °F 32.0 °F 96% 29.58 in 2.5 mi SSW 17.3 mph 33.4 mph 0.02 in Snow Light Snow
5:32 AM 33.8 °F 23.9 °F 32.0 °F 93% 29.54 in 4.0 mi SSW 15.0 mph - 0.01 in Snow Light Snow
5:53 AM 33.1 °F 23.4 °F 32.0 °F 96% 29.57 in 3.0 mi SSW 13.8 mph 24.2 mph 0.01 in Snow Light Snow
6:53 AM 35.1 °F 23.8 °F 35.1 °F 100% 29.54 in 10.0 mi SSW 20.7 mph 31.1 mph 0.01 in   Overcast
7:09 AM 35.6 °F 25.9 °F 35.6 °F 100% 29.51 in 10.0 mi SSW 16.1 mph 29.9 mph N/A   Overcast
7:21 AM 35.6 °F 24.8 °F 35.6 °F 100% 29.51 in 10.0 mi SSW 19.6 mph 35.7 mph N/A   Overcast
7:53 AM 34.0 °F 21.5 °F 34.0 °F 100% 29.55 in 10.0 mi SSW 24.2 mph 36.8 mph N/A   Overcast
8:53 AM 35.1 °F 23.3 °F 35.1 °F 100% 29.52 in 10.0 mi SSW 23.0 mph 33.4 mph 0.00 in   Overcast
9:32 AM 35.6 °F 23.7 °F 35.6 °F 100% 29.50 in 10.0 mi SSW 24.2 mph 33.4 mph N/A   Overcast
9:53 AM 35.1 °F 23.0 °F 34.0 °F 96% 29.52 in 10.0 mi SW 24.2 mph 32.2 mph N/A   Overcast
10:27 AM 35.6 °F 23.7 °F 32.0 °F 87% 29.54 in 10.0 mi SW 24.2 mph 33.4 mph N/A   Overcast
10:53 AM 34.0 °F 22.7 °F 30.9 °F 89% 29.59 in 10.0 mi WSW 19.6 mph 34.5 mph N/A   Overcast
11:36 AM 32.0 °F 22.1 °F 28.4 °F 87% 29.60 in 1.8 mi West 13.8 mph 32.2 mph 0.02 in Snow Light Snow
11:44 AM 30.2 °F 18.9 °F 28.4 °F 93% 29.58 in 0.8 mi WSW 16.1 mph 27.6 mph 0.04 in Snow Light Snow
11:50 AM 30.2 °F 18.9 °F 28.4 °F 93% 29.61 in 0.2 mi WNW 16.1 mph 25.3 mph 0.06 in Fog , Snow Snow
11:53 AM 30.0 °F 19.1 °F 28.0 °F 92% 29.64 in 0.2 mi WNW 15.0 mph 25.3 mph 0.07 in Fog , Snow Snow
12:08 PM 28.4 °F 24.6 °F 26.6 °F 93% 29.63 in 0.2 mi Variable 3.5 mph 18.4 mph 0.09 in Fog , Snow Heavy Snow
12:53 PM 28.0 °F - 25.0 °F 88% 29.67 in 0.5 mi Calm Calm - 0.21 in Fog , Snow Light Snow
12:58 PM 28.4 °F - 24.8 °F 86% 29.63 in 2.5 mi Calm Calm - 0.00 in Snow Light Snow
1:05 PM 28.4 °F 24.6 °F 24.8 °F 86% 29.62 in 9.0 mi SSE 3.5 mph - 0.00 in   Overcast
1:14 PM 28.4 °F 21.2 °F 24.8 °F 86% 29.61 in 10.0 mi South 6.9 mph - 0.00 in   Overcast
1:46 PM 28.4 °F 19.7 °F 26.6 °F 93% 29.63 in 10.0 mi SSW 9.2 mph - 0.00 in   Overcast
1:53 PM 28.9 °F 19.2 °F 25.0 °F 85% 29.68 in 10.0 mi SSW 11.5 mph - 0.00 in   Overcast
2:53 PM 30.9 °F 21.7 °F 24.1 °F 76% 29.69 in 10.0 mi SSW 11.5 mph - N/A   Partly Cloudy
3:53 PM 32.0 °F 26.4 °F 21.9 °F 66% 29.72 in 10.0 mi SSW 5.8 mph - N/A   Overcast
4:53 PM 32.0 °F 26.4 °F 21.0 °F 64% 29.73 in 10.0 mi SW 5.8 mph - N/A   Mostly Cloudy
5:53 PM 28.0 °F 20.0 °F 15.1 °F 58% 29.76 in 10.0 mi SW 8.1 mph - N/A   Clear
6:53 PM 28.9 °F 18.2 °F 21.9 °F 75% 29.76 in 10.0 mi SSW 13.8 mph - N/A   Clear
7:53 PM 28.9 °F 16.5 °F 21.9 °F 75% 29.75 in 10.0 mi SSW 18.4 mph 26.5 mph N/A   Overcast
8:53 PM 28.9 °F 17.3 °F 21.0 °F 72% 29.76 in 10.0 mi SSW 16.1 mph 23.0 mph N/A   Overcast
9:53 PM 28.9 °F 15.4 °F 19.9 °F 69% 29.74 in 10.0 mi SSW 21.9 mph 27.6 mph N/A   Overcast
10:53 PM 28.9 °F 17.3 °F 21.0 °F 72% 29.74 in 10.0 mi SSW 16.1 mph 25.3 mph N/A   Overcast
11:00 PM - - - N/A% - - North - - N/A   Unknown
11:53 PM 28.9 °F 15.1 °F 21.0 °F 72% 29.73 in 10.0 mi SSW 23.0 mph 35.7 mph N/A   Mostly Cloudy